Fremont, MI

2:04 AM EDT on August 18, 2019 (GMT -0400)
Fremont

Weather History for KFFX - May, 2019

Change the Weather History Date:

Thursday, May 16, 2019

  Actual Average (WUND) Record (WUND)
Temperature  
Mean Temperature 60 °F -  
Max Temperature 74 °F - - (-1)
Min Temperature 47 °F - - (-1)
Degree Days  
Heating Degree Days 4    
Growing Degree Days 10 (Base 50)    
Moisture  
Dew Point 51 °F    
Average Humidity 76    
Maximum Humidity 100    
Minimum Humidity 50    
Precipitation  
Precipitation 0.00 in - - ()
Sea Level Pressure  
Sea Level Pressure 29.79 in    
Wind  
Wind Speed 5 mph ()    
Max Wind Speed 22 mph    
Max Gust Speed 30 mph    
Visibility 9.1 miles    
Events Fog , Rain    
Averages and records for this station are not official NWS values.
T = Trace of Precipitation, MM = Missing Value Source: Averaged Metar Reports

Daily Weather History Graph

Daily Weather History Graph

Search for Another Location

Airport or City:

Astronomy

May. 16, 2019 Rise Set
Actual Time 6:18 AM EDT 9:02 PM EDT
Civil Twilight 5:45 AM EDT 9:35 PM EDT
Nautical Twilight 5:04 AM EDT 10:17 PM EDT
Astronomical Twilight 4:16 AM EDT 11:05 PM EDT
Moon 6:35 PM EDT (5/16) 5:23 AM EDT (5/16)
Length of Visible Light 15h 50m
Length of Day
14h 43m
Waxing Gibbous, 94% of the Moon is Illuminated
May 16
Waxing Gibbous
May 18
Full
May 26
Last Quarter
Jun 3
New
Jun 10
First Quarter

Hourly Weather History & Observations

Time (EDT) Temp. Dew Point Humidity Pressure Visibility Wind Dir Wind Speed Gust Speed Precip Events Conditions
12:16 AM 50.9 °F 45.7 °F 82% 29.92 in 10.0 mi Calm Calm - N/A   Clear
12:36 AM 51.1 °F 46.9 °F 86% 29.92 in 10.0 mi East 3.5 mph - N/A   Clear
12:55 AM 49.3 °F 45.1 °F 86% 29.92 in 10.0 mi Calm Calm - N/A   Clear
1:16 AM 47.5 °F 46.8 °F 97% 29.91 in 10.0 mi Calm Calm - N/A   Clear
1:36 AM 47.7 °F 47.1 °F 98% 29.91 in 10.0 mi Calm Calm - N/A   Clear
1:55 AM 47.3 °F 46.8 °F 98% 29.90 in 10.0 mi Calm Calm - N/A   Clear
2:15 AM 47.3 °F 46.6 °F 97% 29.91 in 10.0 mi Calm Calm - N/A   Clear
2:36 AM 47.7 °F 46.8 °F 97% 29.90 in 10.0 mi Calm Calm - N/A   Clear
2:55 AM 50.7 °F 44.8 °F 80% 29.89 in 10.0 mi Calm Calm - N/A   Clear
3:15 AM 47.7 °F 44.8 °F 90% 29.89 in 10.0 mi Calm Calm - N/A   Clear
3:35 AM 49.3 °F 44.1 °F 82% 29.89 in 10.0 mi East 3.5 mph - N/A   Clear
3:56 AM 50.5 °F 42.8 °F 75% 29.89 in 10.0 mi ESE 3.5 mph - N/A   Clear
4:16 AM 50.4 °F 41.9 °F 73% 29.88 in 10.0 mi East 4.6 mph - N/A   Clear
4:36 AM 51.1 °F 41.7 °F 70% 29.88 in 10.0 mi ESE 5.8 mph - N/A   Clear
4:55 AM 50.5 °F 41.2 °F 70% 29.88 in 10.0 mi ESE 4.6 mph - N/A   Clear
5:16 AM 50.9 °F 40.5 °F 67% 29.88 in 10.0 mi East 5.8 mph - N/A   Clear
5:36 AM 50.9 °F 40.5 °F 67% 29.88 in 10.0 mi ESE 5.8 mph - N/A   Clear
5:55 AM 51.3 °F 40.3 °F 66% 29.88 in 10.0 mi East 5.8 mph - N/A   Scattered Clouds
6:15 AM 51.3 °F 41.0 °F 68% 29.88 in 10.0 mi ESE 5.8 mph - N/A   Mostly Cloudy
6:36 AM 50.9 °F 41.4 °F 70% 29.87 in 10.0 mi ESE 5.8 mph - N/A   Overcast
6:55 AM 50.9 °F 41.2 °F 69% 29.87 in 10.0 mi ESE 4.6 mph - N/A   Mostly Cloudy
7:15 AM 51.4 °F 41.0 °F 68% 29.86 in 10.0 mi ESE 5.8 mph - N/A   Scattered Clouds
7:35 AM 52.7 °F 41.0 °F 64% 29.86 in 10.0 mi ESE 5.8 mph - N/A   Clear
7:56 AM 53.6 °F 41.4 °F 63% 29.85 in 10.0 mi ESE 6.9 mph - N/A   Clear
8:15 AM 55.4 °F 42.6 °F 62% 29.85 in 10.0 mi ESE 5.8 mph - N/A   Clear
8:35 AM 55.9 °F 43.7 °F 63% 29.84 in 10.0 mi SE 5.8 mph - N/A   Clear
8:56 AM 58.5 °F 45.0 °F 61% 29.83 in 10.0 mi SSE 5.8 mph - N/A   Clear
9:15 AM 59.0 °F 46.0 °F 62% 29.84 in 10.0 mi SSE 3.5 mph - N/A   Clear
9:35 AM 60.3 °F 47.5 °F 63% 29.85 in 10.0 mi South 4.6 mph - N/A   Clear
9:56 AM 61.3 °F 48.4 °F 62% 29.85 in 10.0 mi SSW 4.6 mph - N/A   Clear
10:16 AM 62.2 °F 49.6 °F 63% 29.85 in 10.0 mi South 3.5 mph - N/A   Mostly Cloudy
10:35 AM 62.6 °F 49.8 °F 63% 29.85 in 10.0 mi SW 4.6 mph - N/A   Scattered Clouds
10:56 AM 64.2 °F 50.7 °F 61% 29.84 in 10.0 mi SW 9.2 mph - N/A   Clear
11:16 AM 65.3 °F 51.1 °F 60% 29.84 in 10.0 mi SW 8.1 mph - N/A   Clear
11:35 AM 65.5 °F 51.4 °F 60% 29.83 in 10.0 mi SW 10.4 mph 16.1 mph N/A   Clear
11:55 AM 64.2 °F 52.5 °F 66% 29.83 in 10.0 mi SW 12.7 mph 19.6 mph N/A   Clear
12:16 PM 62.6 °F 54.1 °F 74% 29.81 in 10.0 mi SSW 9.2 mph - N/A Rain Light Rain
12:36 PM 62.6 °F 54.9 °F 76% 29.79 in 10.0 mi SW 18.4 mph 23.0 mph N/A   Light Drizzle
12:55 PM 61.7 °F 56.3 °F 82% 29.77 in 10.0 mi SW 19.6 mph 23.0 mph N/A   Drizzle
1:16 PM 61.7 °F 56.3 °F 82% 29.75 in 10.0 mi SSW 17.3 mph 23.0 mph N/A   Scattered Clouds
1:36 PM 62.1 °F 56.8 °F 83% 29.73 in 10.0 mi SSW 20.7 mph 27.6 mph N/A   Clear
1:55 PM 64.6 °F 57.4 °F 77% 29.70 in 10.0 mi South 11.5 mph 17.3 mph N/A   Mostly Cloudy
2:16 PM 67.6 °F 58.3 °F 72% 29.72 in 10.0 mi SSW 9.2 mph 17.3 mph N/A   Mostly Cloudy
2:36 PM 69.1 °F 57.9 °F 68% 29.71 in 10.0 mi SSW 16.1 mph 25.3 mph N/A   Scattered Clouds
2:55 PM 70.3 °F 58.1 °F 65% 29.70 in 10.0 mi SSW 18.4 mph 29.9 mph N/A   Scattered Clouds
3:15 PM 72.3 °F 57.4 °F 59% 29.70 in 10.0 mi SW 21.9 mph 29.9 mph N/A   Scattered Clouds
3:36 PM 72.5 °F 56.7 °F 57% 29.70 in 10.0 mi SW 19.6 mph 28.8 mph N/A   Overcast
3:55 PM 73.9 °F 57.2 °F 56% 29.70 in 10.0 mi SW 18.4 mph 25.3 mph N/A   Mostly Cloudy
4:15 PM 73.0 °F 56.7 °F 56% 29.70 in 10.0 mi WSW 13.8 mph - N/A   Mostly Cloudy
4:36 PM 74.8 °F 55.2 °F 50% 29.69 in 10.0 mi SSW 19.6 mph 27.6 mph N/A   Mostly Cloudy
4:56 PM 71.8 °F 54.9 °F 55% 29.69 in 10.0 mi SW 15.0 mph 24.2 mph N/A   Mostly Cloudy
5:15 PM 70.7 °F 55.0 °F 58% 29.70 in 10.0 mi WSW 13.8 mph 21.9 mph N/A   Overcast
5:36 PM 69.4 °F 55.0 °F 60% 29.70 in 10.0 mi WSW 15.0 mph 20.7 mph N/A   Overcast
5:55 PM 68.5 °F 55.8 °F 64% 29.71 in 10.0 mi WSW 10.4 mph 24.2 mph N/A   Overcast
6:15 PM 67.6 °F 56.3 °F 67% 29.71 in 10.0 mi WSW 9.2 mph - N/A   Overcast
6:36 PM 67.6 °F 56.5 °F 67% 29.71 in 10.0 mi WSW 11.5 mph - N/A   Overcast
6:56 PM 67.1 °F 56.5 °F 69% 29.70 in 10.0 mi WSW 18.4 mph 23.0 mph N/A   Overcast
7:15 PM 63.7 °F 55.9 °F 76% 29.70 in 10.0 mi WSW 13.8 mph 18.4 mph N/A   Overcast
7:36 PM 61.5 °F 58.1 °F 89% 29.70 in 5.0 mi SW 11.5 mph - N/A Rain Light Rain
7:56 PM 61.0 °F 59.4 °F 94% 29.70 in 10.0 mi SSW 4.6 mph - N/A   Overcast
8:16 PM 60.8 °F 59.2 °F 94% 29.70 in 10.0 mi SW 5.8 mph - N/A   Overcast
8:35 PM 60.8 °F 58.6 °F 93% 29.70 in 10.0 mi Calm Calm - N/A   Overcast
8:56 PM 60.4 °F 58.6 °F 94% 29.71 in 10.0 mi SW 4.6 mph - N/A   Overcast
9:15 PM 59.2 °F 58.1 °F 96% 29.70 in 7.0 mi SSW 6.9 mph - N/A   Scattered Clouds
9:35 PM 58.3 °F 57.4 °F 97% 29.70 in 7.0 mi Calm Calm - N/A   Clear
9:56 PM 58.3 °F 57.6 °F 97% 29.70 in 7.0 mi Calm Calm - N/A   Clear
10:16 PM 57.4 °F 57.4 °F 100% 29.71 in 3.0 mi Calm Calm - N/A   Clear
10:35 PM 56.3 °F 56.3 °F 100% 29.71 in 3.0 mi Calm Calm - N/A   Clear
10:55 PM 55.6 °F 55.6 °F 100% 29.69 in 0.8 mi Calm Calm - N/A   Mist
11:16 PM 55.2 °F 55.2 °F 100% 29.70 in 1.0 mi Calm Calm - N/A   Mist
11:35 PM 53.2 °F 53.2 °F 100% 29.69 in 0.5 mi Calm Calm - N/A Fog Fog
11:55 PM 53.8 °F 53.8 °F 100% 29.68 in 0.2 mi Calm Calm - N/A Fog Fog